Year,Month,Day,Hour,Minute,Value (Times are PST for temperature in C)
2005,07,25,00,00,14.70
2005,07,25,00,01,14.70
2005,07,25,00,02,14.70
2005,07,25,00,03,14.70
2005,07,25,00,04,14.70
2005,07,25,00,05,14.70
2005,07,25,00,06,14.70
2005,07,25,00,07,14.70
2005,07,25,00,08,14.70
2005,07,25,00,09,14.70
2005,07,25,00,10,14.70
2005,07,25,00,11,14.70
2005,07,25,00,12,14.70
2005,07,25,00,13,14.70
2005,07,25,00,14,14.70
2005,07,25,00,15,14.70
2005,07,25,00,16,14.70
2005,07,25,00,17,14.70
2005,07,25,00,18,14.70
2005,07,25,00,19,14.70
2005,07,25,00,20,14.70
2005,07,25,00,21,14.70
2005,07,25,00,22,14.70
2005,07,25,00,23,14.60
2005,07,25,00,24,14.60
2005,07,25,00,25,14.60
2005,07,25,00,26,14.60
2005,07,25,00,27,14.60
2005,07,25,00,28,14.60
2005,07,25,00,29,14.60
2005,07,25,00,30,14.60
2005,07,25,00,31,14.60
2005,07,25,00,32,14.60
2005,07,25,00,33,14.60
2005,07,25,00,34,14.50
2005,07,25,00,35,14.50
2005,07,25,00,36,14.50
2005,07,25,00,37,14.50
2005,07,25,00,38,14.50
2005,07,25,00,39,14.50
2005,07,25,08,51,17.70
2005,07,25,08,52,17.70
2005,07,25,08,53,17.60
2005,07,25,08,54,17.60
2005,07,25,08,55,17.60
2005,07,25,08,56,17.60
2005,07,25,08,57,17.60
2005,07,25,08,58,17.70
2005,07,25,08,59,17.80
2005,07,25,09,00,17.80
2005,07,25,09,01,17.90
2005,07,25,09,02,17.90
2005,07,25,09,03,17.90
2005,07,25,09,04,17.90
2005,07,25,09,05,17.90
2005,07,25,09,06,17.90
2005,07,25,09,07,17.90
2005,07,25,09,08,17.90
2005,07,25,09,09,17.90
2005,07,25,09,10,18.00
2005,07,25,09,11,18.00
2005,07,25,09,12,18.00
2005,07,25,09,13,18.10
2005,07,25,09,14,18.10
2005,07,25,09,15,18.10
2005,07,25,09,16,18.10
2005,07,25,09,17,18.10
2005,07,25,09,18,18.20
2005,07,25,09,19,18.10
2005,07,25,09,20,18.10
2005,07,25,09,21,18.10
2005,07,25,09,22,18.10
2005,07,25,09,23,18.20
2005,07,25,09,24,18.30
2005,07,25,09,25,18.40
2005,07,25,09,26,18.40
2005,07,25,09,27,18.50
2005,07,25,09,28,18.60
2005,07,25,09,29,18.70
2005,07,25,09,30,18.80
2005,07,25,09,31,18.90
2005,07,25,09,32,18.90
2005,07,25,09,33,19.00
2005,07,25,09,34,19.10
2005,07,25,09,38,19.20
2005,07,25,09,42,18.90
2005,07,25,09,46,18.90
2005,07,25,09,47,18.80
2005,07,25,09,56,19.00
2005,07,25,09,57,19.00
2005,07,25,09,58,18.90
2005,07,25,09,59,18.90
2005,07,25,10,00,18.90
2005,07,25,10,01,18.80
2005,07,25,10,02,18.70
2005,07,25,10,06,18.70
2005,07,25,10,10,18.60
2005,07,25,10,14,18.70
2005,07,25,10,15,18.70
2005,07,25,10,16,18.80
2005,07,25,10,17,18.80
2005,07,25,10,18,18.70
2005,07,25,10,19,18.70
2005,07,25,10,20,18.70
2005,07,25,10,21,18.70
2005,07,25,10,22,18.70
2005,07,25,10,23,18.60
2005,07,25,10,24,18.70
2005,07,25,10,25,18.70
2005,07,25,10,26,18.70
2005,07,25,10,27,18.70
2005,07,25,10,28,18.80
2005,07,25,10,29,18.80
2005,07,25,10,30,18.70
2005,07,25,10,31,18.70
2005,07,25,10,32,18.70
2005,07,25,10,33,18.70
2005,07,25,10,34,18.70
2005,07,25,10,35,18.70
2005,07,25,10,36,18.70
2005,07,25,10,37,18.60
2005,07,25,10,38,18.60
2005,07,25,10,39,18.60
2005,07,25,10,40,18.60
2005,07,25,10,41,18.70
2005,07,25,10,42,18.80
2005,07,25,10,43,18.80
2005,07,25,10,44,18.80
2005,07,25,10,45,18.90
2005,07,25,10,46,18.90
2005,07,25,10,47,18.90
2005,07,25,10,48,19.10
2005,07,25,10,49,19.10
2005,07,25,10,50,19.10
2005,07,25,10,51,19.20
2005,07,25,10,52,19.20
2005,07,25,10,53,19.20
2005,07,25,10,54,19.20
2005,07,25,10,55,19.30
2005,07,25,10,56,19.40
2005,07,25,10,57,19.50
2005,07,25,10,58,19.50
2005,07,25,10,59,19.50
2005,07,25,11,00,19.50
2005,07,25,11,01,19.50
2005,07,25,11,02,19.50
2005,07,25,11,03,19.60
2005,07,25,11,04,19.80
2005,07,25,11,05,19.80
2005,07,25,11,06,19.80
2005,07,25,11,07,19.90
2005,07,25,11,08,19.90
2005,07,25,11,09,19.80
2005,07,25,11,10,19.80
2005,07,25,11,11,19.80
2005,07,25,11,12,19.80
2005,07,25,11,13,19.70
2005,07,25,11,14,19.60
2005,07,25,11,15,19.50
2005,07,25,11,16,19.40
2005,07,25,11,17,19.40
2005,07,25,11,18,19.50
2005,07,25,11,19,19.50
2005,07,25,11,20,19.60
2005,07,25,11,21,19.70
2005,07,25,11,22,19.80
2005,07,25,11,23,19.90
2005,07,25,11,24,19.90
2005,07,25,11,25,19.90
2005,07,25,11,26,19.90
2005,07,25,11,27,20.00
2005,07,25,11,28,20.20
2005,07,25,11,29,20.20
2005,07,25,11,30,20.20
2005,07,25,11,31,20.20
2005,07,25,11,32,20.20
2005,07,25,11,33,20.20
2005,07,25,11,34,20.20
2005,07,25,11,35,20.20
2005,07,25,11,36,20.20
2005,07,25,11,37,20.00
2005,07,25,11,38,19.90
2005,07,25,11,39,19.90
2005,07,25,11,40,19.90
2005,07,25,11,41,20.00
2005,07,25,11,42,20.10
2005,07,25,11,43,20.10
2005,07,25,11,44,20.10
2005,07,25,11,45,20.10
2005,07,25,11,46,20.10
2005,07,25,11,47,20.20
2005,07,25,11,48,20.20
2005,07,25,11,49,20.20
2005,07,25,11,50,20.30
2005,07,25,11,51,20.40
2005,07,25,11,52,20.50
2005,07,25,11,53,20.50
2005,07,25,11,54,20.50
2005,07,25,11,55,20.50
2005,07,25,11,56,20.50
2005,07,25,11,57,20.60
2005,07,25,11,58,20.50
2005,07,25,11,59,20.50
2005,07,25,12,00,20.50
2005,07,25,12,01,20.60
2005,07,25,12,02,20.60
2005,07,25,12,03,20.70
2005,07,25,12,04,20.70
2005,07,25,12,05,20.70
2005,07,25,12,06,20.70
2005,07,25,12,07,20.90
2005,07,25,12,08,21.00
2005,07,25,12,09,21.10
2005,07,25,12,10,21.30
2005,07,25,12,11,21.30
2005,07,25,12,12,21.30
2005,07,25,12,13,21.30
2005,07,25,12,14,21.30
2005,07,25,12,15,21.20
2005,07,25,12,16,21.20
2005,07,25,12,17,21.10
2005,07,25,12,18,21.10
2005,07,25,12,19,21.10
2005,07,25,12,20,21.10
2005,07,25,12,21,21.00
2005,07,25,12,22,21.00
2005,07,25,12,23,21.00
2005,07,25,12,24,21.00
2005,07,25,12,25,21.00
2005,07,25,12,26,21.00
2005,07,25,12,27,21.00
2005,07,25,12,28,21.00
2005,07,25,12,29,21.00
2005,07,25,12,30,21.00
2005,07,25,12,31,21.00
2005,07,25,12,32,21.00
2005,07,25,12,33,21.10
2005,07,25,12,34,21.10
2005,07,25,12,35,21.20
2005,07,25,12,36,21.20
2005,07,25,12,37,21.20
2005,07,25,12,38,21.30
2005,07,25,12,39,21.30
2005,07,25,12,40,21.30
2005,07,25,12,41,21.30
2005,07,25,12,42,21.40
2005,07,25,12,43,21.40
2005,07,25,12,44,21.40
2005,07,25,12,45,21.40
2005,07,25,12,46,21.50
2005,07,25,12,47,21.60
2005,07,25,12,48,21.60
2005,07,25,12,49,21.80
2005,07,25,12,50,21.80
2005,07,25,12,51,21.80
2005,07,25,12,52,21.80
2005,07,25,12,53,22.00
2005,07,25,12,54,22.00
2005,07,25,12,55,22.00
2005,07,25,12,56,21.90
2005,07,25,12,57,21.90
2005,07,25,12,58,21.90
2005,07,25,12,59,21.90
2005,07,25,13,00,21.90
2005,07,25,13,01,21.90
2005,07,25,13,02,21.90
2005,07,25,13,03,22.00
2005,07,25,13,04,22.00
2005,07,25,13,05,22.00
2005,07,25,13,06,22.00
2005,07,25,13,07,22.10
2005,07,25,13,08,22.10
2005,07,25,13,09,22.10
2005,07,25,13,10,22.10
2005,07,25,13,11,22.10
2005,07,25,13,12,22.10
2005,07,25,13,13,22.10
2005,07,25,13,14,22.20
2005,07,25,13,15,22.20
2005,07,25,13,16,22.20
2005,07,25,13,17,22.20
2005,07,25,13,18,22.20
2005,07,25,13,19,22.10
2005,07,25,13,20,22.10
2005,07,25,13,21,22.10
2005,07,25,13,22,22.10
2005,07,25,13,23,22.00
2005,07,25,13,24,22.00
2005,07,25,13,25,22.10
2005,07,25,13,26,22.10
2005,07,25,13,27,22.10
2005,07,25,13,28,22.10
2005,07,25,13,29,22.10
2005,07,25,13,30,22.10
2005,07,25,13,31,22.00
2005,07,25,13,32,22.00
2005,07,25,13,33,21.90
2005,07,25,13,34,21.90
2005,07,25,13,35,22.00
2005,07,25,13,36,22.10
2005,07,25,13,37,22.10
2005,07,25,13,38,22.10
2005,07,25,13,39,22.10
2005,07,25,13,40,22.10
2005,07,25,13,41,21.90
2005,07,25,13,42,21.90
2005,07,25,13,43,22.00
2005,07,25,13,44,22.20
2005,07,25,13,45,22.30
2005,07,25,13,46,22.30
2005,07,25,13,47,22.40
2005,07,25,13,48,22.50
2005,07,25,13,49,22.60
2005,07,25,13,50,22.60
2005,07,25,13,51,22.80
2005,07,25,13,52,22.80
2005,07,25,13,53,22.90
2005,07,25,13,54,22.90
2005,07,25,13,55,22.90
2005,07,25,13,56,22.90
2005,07,25,13,57,22.90
2005,07,25,13,58,22.90
2005,07,25,13,59,22.90
2005,07,25,14,00,23.00
2005,07,25,14,01,23.10
2005,07,25,14,02,23.10
2005,07,25,14,03,23.10
2005,07,25,14,04,23.00
2005,07,25,14,05,22.90
2005,07,25,14,06,22.90
2005,07,25,14,07,22.90
2005,07,25,14,08,23.00
2005,07,25,14,09,23.10
2005,07,25,14,10,23.10
2005,07,25,14,11,23.10
2005,07,25,14,12,23.10
2005,07,25,14,13,23.10
2005,07,25,14,14,23.20
2005,07,25,14,15,23.30
2005,07,25,14,16,23.40
2005,07,25,14,17,23.40
2005,07,25,14,18,23.50
2005,07,25,14,19,23.70
2005,07,25,14,20,23.70
2005,07,25,14,21,23.60
2005,07,25,14,22,23.50
2005,07,25,14,23,23.40
2005,07,25,14,24,23.30
2005,07,25,14,25,23.30
2005,07,25,14,26,23.40
2005,07,25,14,27,23.30
2005,07,25,14,28,23.30
2005,07,25,14,29,23.30
2005,07,25,14,30,23.30
2005,07,25,14,31,23.30
2005,07,25,14,32,23.30
2005,07,25,14,33,23.30
2005,07,25,14,34,23.40
2005,07,25,14,35,23.50
2005,07,25,14,36,23.50
2005,07,25,14,37,23.40
2005,07,25,14,38,23.40
2005,07,25,14,39,23.40
2005,07,25,14,40,23.50
2005,07,25,14,41,23.60
2005,07,25,14,42,23.70
2005,07,25,14,43,23.70
2005,07,25,14,44,23.70
2005,07,25,14,45,23.70
2005,07,25,14,46,23.70
2005,07,25,14,47,23.80
2005,07,25,14,48,23.90
2005,07,25,14,49,23.90
2005,07,25,14,50,23.90
2005,07,25,14,51,23.90
2005,07,25,14,52,23.70
2005,07,25,14,53,23.70
2005,07,25,14,54,23.70
2005,07,25,14,55,23.70
2005,07,25,14,56,23.50
2005,07,25,14,57,23.30
2005,07,25,14,58,23.30
2005,07,25,14,59,23.30
2005,07,25,15,00,23.30
2005,07,25,15,01,23.40
2005,07,25,15,02,23.50
2005,07,25,15,03,23.60
2005,07,25,15,04,23.70
2005,07,25,15,05,23.70
2005,07,25,15,06,23.80
2005,07,25,15,07,23.70
2005,07,25,15,08,23.70
2005,07,25,15,09,23.70
2005,07,25,15,10,23.70
2005,07,25,15,11,23.70
2005,07,25,15,12,23.70
2005,07,25,15,13,23.70
2005,07,25,15,14,23.70
2005,07,25,15,15,23.60
2005,07,25,15,16,23.60
2005,07,25,15,17,23.70
2005,07,25,15,18,23.70
2005,07,25,15,19,23.70
2005,07,25,15,20,23.60
2005,07,25,15,21,23.60
2005,07,25,15,22,23.60
2005,07,25,15,23,23.60
2005,07,25,15,24,23.60
2005,07,25,15,25,23.70
2005,07,25,15,26,23.70
2005,07,25,15,27,23.80
2005,07,25,15,28,23.90
2005,07,25,15,29,24.00
2005,07,25,15,30,24.10
2005,07,25,15,31,24.10
2005,07,25,15,32,24.10
2005,07,25,15,33,24.10
2005,07,25,15,34,24.00
2005,07,25,15,35,23.90
2005,07,25,15,36,23.80
2005,07,25,15,37,23.80
2005,07,25,15,38,23.80
2005,07,25,15,39,23.80
2005,07,25,15,40,24.00
2005,07,25,15,41,24.10
2005,07,25,15,42,24.20
2005,07,25,15,43,24.30
2005,07,25,15,44,24.30
2005,07,25,15,45,24.30
2005,07,25,15,46,24.30
2005,07,25,15,47,24.20
2005,07,25,15,48,24.20
2005,07,25,15,49,24.10
2005,07,25,15,50,24.10
2005,07,25,15,51,23.90
2005,07,25,15,52,23.90
2005,07,25,15,53,23.90
2005,07,25,15,54,24.00
2005,07,25,15,55,24.00
2005,07,25,15,56,24.10
2005,07,25,15,57,24.10
2005,07,25,15,58,24.10
2005,07,25,15,59,24.10
2005,07,25,16,00,24.10
2005,07,25,16,01,24.10
2005,07,25,16,02,24.10
2005,07,25,16,03,24.00
2005,07,25,16,04,23.90
2005,07,25,16,05,23.90
2005,07,25,16,06,24.00
2005,07,25,16,07,24.10
2005,07,25,16,08,24.10
2005,07,25,16,09,24.10
2005,07,25,16,10,24.00
2005,07,25,16,11,24.10
2005,07,25,16,12,24.10
2005,07,25,16,13,24.10
2005,07,25,16,14,24.10
2005,07,25,16,15,24.10
2005,07,25,16,16,24.20
2005,07,25,16,17,24.10
2005,07,25,16,18,24.10
2005,07,25,16,19,24.00
2005,07,25,16,20,23.90
2005,07,25,16,21,23.90
2005,07,25,16,22,23.70
2005,07,25,16,23,23.70
2005,07,25,16,24,23.70
2005,07,25,16,25,23.70
2005,07,25,16,26,23.70
2005,07,25,16,27,23.70
2005,07,25,16,28,23.60
2005,07,25,16,29,23.60
2005,07,25,16,30,23.60
2005,07,25,16,31,23.60
2005,07,25,16,32,23.60
2005,07,25,16,33,23.70
2005,07,25,16,34,23.70
2005,07,25,16,35,23.70
2005,07,25,16,36,23.80
2005,07,25,16,37,24.10
2005,07,25,16,38,24.20
2005,07,25,16,39,24.20
2005,07,25,16,40,24.10
2005,07,25,16,41,24.10
2005,07,25,16,42,24.00
2005,07,25,16,43,23.90
2005,07,25,16,44,23.90
2005,07,25,16,45,24.10
2005,07,25,16,46,24.10
2005,07,25,16,47,24.10
2005,07,25,16,48,24.10
2005,07,25,16,49,24.10
2005,07,25,16,50,24.10
2005,07,25,16,51,24.10
2005,07,25,16,52,24.10
2005,07,25,16,53,24.10
2005,07,25,16,54,24.10
2005,07,25,16,55,24.20
2005,07,25,16,56,24.30
2005,07,25,16,57,24.30
2005,07,25,16,58,24.30
2005,07,25,16,59,24.50
2005,07,25,17,00,24.60
2005,07,25,17,01,24.60
2005,07,25,17,02,24.50
2005,07,25,17,03,24.40
2005,07,25,17,04,24.50
2005,07,25,17,05,24.60
2005,07,25,17,06,24.60
2005,07,25,17,07,24.50
2005,07,25,17,08,24.40
2005,07,25,17,09,24.30
2005,07,25,17,10,24.20
2005,07,25,17,11,24.10
2005,07,25,17,12,24.10
2005,07,25,17,13,24.10
2005,07,25,17,14,24.10
2005,07,25,17,15,24.10
2005,07,25,17,16,24.20
2005,07,25,17,17,24.20
2005,07,25,17,18,24.20
2005,07,25,17,19,24.20
2005,07,25,17,20,24.20
2005,07,25,17,21,24.10
2005,07,25,17,22,24.10
2005,07,25,17,23,24.10
2005,07,25,17,24,24.10
2005,07,25,17,25,24.20
2005,07,25,17,26,24.20
2005,07,25,17,27,24.30
2005,07,25,17,28,24.30
2005,07,25,17,29,24.30
2005,07,25,17,30,24.40
2005,07,25,17,31,24.40
2005,07,25,17,32,24.40
2005,07,25,17,33,24.40
2005,07,25,17,34,24.40
2005,07,25,17,35,24.30
2005,07,25,17,36,24.20
2005,07,25,17,37,24.20
2005,07,25,17,38,24.30
2005,07,25,17,39,24.30
2005,07,25,17,40,24.30
2005,07,25,17,41,24.20
2005,07,25,17,42,24.20
2005,07,25,17,43,24.20
2005,07,25,17,44,24.20
2005,07,25,17,45,24.20
2005,07,25,17,46,24.20
2005,07,25,17,47,24.30
2005,07,25,17,48,24.30
2005,07,25,17,49,24.40
2005,07,25,17,50,24.40
2005,07,25,17,51,24.30
2005,07,25,17,52,24.30
2005,07,25,17,53,24.30
2005,07,25,17,54,24.30
2005,07,25,17,55,24.30
2005,07,25,17,56,24.30
2005,07,25,17,57,24.40
2005,07,25,17,58,24.40
2005,07,25,17,59,24.50
2005,07,25,18,00,24.70
2005,07,25,18,01,24.80
2005,07,25,18,02,24.80
2005,07,25,18,03,24.80
2005,07,25,18,04,24.80
2005,07,25,18,05,24.60
2005,07,25,18,06,24.50
2005,07,25,18,07,24.50
2005,07,25,18,08,24.50
2005,07,25,18,09,24.50
2005,07,25,18,10,24.60
2005,07,25,18,11,24.60
2005,07,25,18,12,24.60
2005,07,25,18,13,24.60
2005,07,25,18,14,24.70
2005,07,25,18,15,24.80
2005,07,25,18,16,24.80
2005,07,25,18,17,24.80
2005,07,25,18,18,24.90
2005,07,25,18,19,24.90
2005,07,25,18,20,24.90
2005,07,25,18,21,24.90
2005,07,25,18,22,24.90
2005,07,25,18,23,24.80
2005,07,25,18,24,24.80
2005,07,25,18,25,24.70
2005,07,25,18,26,24.70
2005,07,25,18,27,24.70
2005,07,25,18,28,24.60
2005,07,25,18,29,24.60
2005,07,25,18,30,24.60
2005,07,25,18,31,24.60
2005,07,25,18,32,24.70
2005,07,25,18,33,24.70
2005,07,25,18,34,24.80
2005,07,25,18,35,24.80
2005,07,25,18,36,24.80
2005,07,25,18,37,24.90
2005,07,25,18,38,24.90
2005,07,25,18,39,24.90
2005,07,25,18,40,25.10
2005,07,25,18,41,25.10
2005,07,25,18,42,25.30
2005,07,25,18,43,25.40
2005,07,25,18,44,25.50
2005,07,25,18,45,25.50
2005,07,25,18,46,25.50
2005,07,25,18,47,25.50
2005,07,25,18,48,25.40
2005,07,25,18,49,25.40
2005,07,25,18,50,25.30
2005,07,25,18,51,25.20
2005,07,25,18,52,25.10
2005,07,25,18,53,25.10
2005,07,25,18,54,25.10
2005,07,25,18,55,25.00
2005,07,25,18,56,24.90
2005,07,25,18,57,24.90
2005,07,25,18,58,24.80
2005,07,25,18,59,24.70
2005,07,25,19,00,24.70
2005,07,25,19,01,24.60
2005,07,25,19,02,24.60
2005,07,25,19,03,24.50
2005,07,25,19,04,24.50
2005,07,25,19,05,24.50
2005,07,25,19,06,24.40
2005,07,25,19,07,24.40
2005,07,25,19,08,24.40
2005,07,25,19,09,24.40
2005,07,25,19,10,24.40
2005,07,25,19,11,24.40
2005,07,25,19,12,24.40
2005,07,25,19,13,24.40
2005,07,25,19,14,24.40
2005,07,25,19,15,24.40
2005,07,25,19,16,24.40
2005,07,25,19,17,24.50
2005,07,25,19,18,24.50
2005,07,25,19,19,24.50
2005,07,25,19,20,24.50
2005,07,25,19,21,24.50
2005,07,25,19,22,24.50
2005,07,25,19,23,24.50
2005,07,25,19,24,24.50
2005,07,25,19,25,24.50
2005,07,25,19,26,24.50
2005,07,25,19,27,24.50
2005,07,25,19,28,24.50
2005,07,25,19,29,24.50
2005,07,25,19,30,24.50
2005,07,25,19,31,24.50
2005,07,25,19,32,24.50
2005,07,25,19,33,24.40
2005,07,25,19,34,24.40
2005,07,25,19,35,24.40
2005,07,25,19,36,24.40
2005,07,25,19,37,24.40
2005,07,25,19,38,24.40
2005,07,25,19,39,24.30
2005,07,25,19,40,24.30
2005,07,25,19,41,24.30
2005,07,25,19,42,24.20
2005,07,25,19,43,24.20
2005,07,25,19,44,24.10
2005,07,25,19,45,24.10
2005,07,25,19,46,24.10
2005,07,25,19,47,24.10
2005,07,25,19,48,24.00
2005,07,25,19,49,23.90
2005,07,25,19,50,23.90
2005,07,25,19,51,23.90
2005,07,25,19,52,23.80
2005,07,25,19,53,23.70
2005,07,25,19,54,23.70
2005,07,25,19,55,23.70
2005,07,25,19,56,23.70
2005,07,25,19,57,23.70
2005,07,25,19,58,23.60
2005,07,25,19,59,23.60
2005,07,25,20,00,23.60
2005,07,25,20,01,23.60
2005,07,25,20,02,23.50
2005,07,25,20,03,23.40
2005,07,25,20,04,23.40
2005,07,25,20,05,23.40
2005,07,25,20,06,23.30
2005,07,25,20,07,23.30
2005,07,25,20,08,23.30
2005,07,25,20,09,23.20
2005,07,25,20,10,23.20
2005,07,25,20,11,23.20
2005,07,25,20,12,23.10
2005,07,25,20,13,23.10
2005,07,25,20,14,23.10
2005,07,25,20,15,23.10
2005,07,25,20,16,23.10
2005,07,25,20,17,23.10
2005,07,25,20,18,23.10
2005,07,25,20,19,23.10
2005,07,25,20,20,23.10
2005,07,25,20,21,23.00
2005,07,25,20,22,22.90
2005,07,25,20,23,22.90
2005,07,25,20,24,22.90
2005,07,25,20,25,22.90
2005,07,25,20,26,22.90
2005,07,25,20,27,22.90
2005,07,25,20,28,22.90
2005,07,25,20,29,22.90
2005,07,25,20,30,22.90
2005,07,25,20,31,22.90
2005,07,25,20,32,22.90
2005,07,25,20,33,22.90
2005,07,25,20,34,22.90
2005,07,25,20,35,22.90
2005,07,25,20,36,22.90
2005,07,25,20,37,22.90
2005,07,25,20,38,22.90
2005,07,25,20,39,22.90
2005,07,25,20,40,22.80
2005,07,25,20,41,22.70
2005,07,25,20,42,22.60
2005,07,25,20,43,22.50
2005,07,25,20,44,22.40
2005,07,25,20,45,22.30
2005,07,25,20,46,22.10
2005,07,25,20,47,22.00
2005,07,25,20,48,21.90
2005,07,25,20,49,21.80
2005,07,25,20,50,21.80
2005,07,25,20,51,21.80
2005,07,25,20,52,21.80
2005,07,25,20,53,21.60
2005,07,25,20,54,21.60
2005,07,25,20,55,21.50
2005,07,25,20,56,21.40
2005,07,25,20,57,21.30
2005,07,25,20,58,21.30
2005,07,25,20,59,21.30
2005,07,25,21,00,21.30
2005,07,25,21,01,21.20
2005,07,25,21,02,21.10
2005,07,25,21,03,21.10
2005,07,25,21,04,21.10
2005,07,25,21,05,21.00
2005,07,25,21,06,21.00
2005,07,25,21,07,20.90
2005,07,25,21,08,20.80
2005,07,25,21,09,20.80
2005,07,25,21,10,20.70
2005,07,25,21,11,20.60
2005,07,25,21,12,20.60
2005,07,25,21,13,20.50
2005,07,25,21,14,20.40
2005,07,25,21,15,20.40
2005,07,25,21,16,20.30
2005,07,25,21,17,20.20
2005,07,25,21,18,20.20
2005,07,25,21,19,20.10
2005,07,25,21,20,20.00
2005,07,25,21,21,19.90
2005,07,25,21,22,19.90
2005,07,25,21,23,19.80
2005,07,25,21,24,19.80
2005,07,25,21,25,19.70
2005,07,25,21,26,19.70
2005,07,25,21,27,19.60
2005,07,25,21,28,19.60
2005,07,25,21,29,19.60
2005,07,25,21,30,19.50
2005,07,25,21,31,19.40
2005,07,25,21,32,19.40
2005,07,25,21,33,19.30
2005,07,25,21,34,19.30
2005,07,25,21,35,19.20
2005,07,25,21,36,19.20
2005,07,25,21,37,19.20
2005,07,25,21,38,19.10
2005,07,25,21,39,19.10
2005,07,25,21,40,19.10
2005,07,25,21,41,19.10
2005,07,25,21,42,19.10
2005,07,25,21,43,19.10
2005,07,25,21,44,19.10
2005,07,25,21,45,19.10
2005,07,25,21,46,19.10
2005,07,25,21,47,19.10
2005,07,25,21,48,19.10
2005,07,25,21,49,19.10
2005,07,25,21,50,19.10
2005,07,25,21,51,19.00
2005,07,25,21,52,18.90
2005,07,25,21,53,18.90
2005,07,25,21,54,18.90
2005,07,25,21,55,18.90
2005,07,25,21,56,18.90
2005,07,25,21,57,18.80
2005,07,25,21,58,18.80
2005,07,25,21,59,18.70
2005,07,25,22,00,18.70
2005,07,25,22,01,18.70
2005,07,25,22,02,18.60
2005,07,25,22,03,18.60
2005,07,25,22,04,18.60
2005,07,25,22,05,18.50
2005,07,25,22,06,18.50
2005,07,25,22,07,18.50
2005,07,25,22,08,18.40
2005,07,25,22,09,18.30
2005,07,25,22,10,18.30
2005,07,25,22,11,18.20
2005,07,25,22,12,18.20
2005,07,25,22,13,18.20
2005,07,25,22,14,18.20
2005,07,25,22,15,18.10
2005,07,25,22,16,18.10
2005,07,25,22,17,18.10
2005,07,25,22,18,18.10
2005,07,25,22,19,18.10
2005,07,25,22,20,18.00
2005,07,25,22,21,17.90
2005,07,25,22,22,17.90
2005,07,25,22,23,17.90
2005,07,25,22,24,17.90
2005,07,25,22,25,17.90
2005,07,25,22,26,17.90
2005,07,25,22,27,17.90
2005,07,25,22,28,17.90
2005,07,25,22,29,17.90
2005,07,25,22,30,17.90
2005,07,25,22,31,17.90
2005,07,25,22,32,17.90
2005,07,25,22,33,17.90
2005,07,25,22,34,17.90
2005,07,25,22,35,17.80
2005,07,25,22,36,17.80
2005,07,25,22,37,17.80
2005,07,25,22,38,17.80
2005,07,25,22,39,17.80
2005,07,25,22,40,17.80
2005,07,25,22,41,17.80
2005,07,25,22,42,17.70
2005,07,25,22,43,17.70
2005,07,25,22,44,17.70
2005,07,25,22,45,17.70
2005,07,25,22,46,17.70
2005,07,25,22,47,17.70
2005,07,25,22,48,17.60
2005,07,25,22,49,17.60
2005,07,25,22,50,17.50
2005,07,25,22,51,17.50
2005,07,25,22,52,17.40
2005,07,25,22,53,17.30
2005,07,25,22,54,17.20
2005,07,25,22,55,17.10
2005,07,25,22,56,16.90
2005,07,25,22,57,16.80
2005,07,25,22,58,16.70
2005,07,25,22,59,16.50
2005,07,25,23,00,16.30
2005,07,25,23,01,16.10
2005,07,25,23,02,15.90
2005,07,25,23,03,15.80
2005,07,25,23,04,15.60
2005,07,25,23,05,15.50
2005,07,25,23,06,15.40
2005,07,25,23,07,15.30
2005,07,25,23,08,15.20
2005,07,25,23,09,15.10
2005,07,25,23,10,15.00
2005,07,25,23,11,14.90
2005,07,25,23,12,14.80
2005,07,25,23,13,14.80
2005,07,25,23,14,14.70
2005,07,25,23,15,14.70
2005,07,25,23,16,14.60
2005,07,25,23,17,14.60
2005,07,25,23,18,14.50
2005,07,25,23,19,14.50
2005,07,25,23,20,14.40
2005,07,25,23,21,14.40
2005,07,25,23,22,14.30
2005,07,25,23,23,14.30
2005,07,25,23,24,14.20
2005,07,25,23,25,14.20
2005,07,25,23,26,14.20
2005,07,25,23,27,14.10
2005,07,25,23,28,14.10
2005,07,25,23,29,14.10
2005,07,25,23,30,14.10
2005,07,25,23,31,14.00
2005,07,25,23,32,14.00
2005,07,25,23,33,14.00
2005,07,25,23,34,14.10
2005,07,25,23,35,14.10
2005,07,25,23,36,14.10
2005,07,25,23,37,14.10
2005,07,25,23,38,14.10
2005,07,25,23,39,14.10
2005,07,25,23,40,14.00
2005,07,25,23,41,14.00
2005,07,25,23,42,14.00
2005,07,25,23,43,14.00
2005,07,25,23,44,14.10
2005,07,25,23,45,14.10
2005,07,25,23,46,14.10
2005,07,25,23,47,14.20
2005,07,25,23,48,14.20
2005,07,25,23,49,14.20
2005,07,25,23,50,14.20
2005,07,25,23,51,14.30
2005,07,25,23,52,14.30
2005,07,25,23,53,14.30
2005,07,25,23,54,14.30
2005,07,25,23,55,14.30
2005,07,25,23,56,14.20
2005,07,25,23,57,14.20
2005,07,25,23,58,14.20
2005,07,25,23,59,14.20
